TimePST,TemperatureF,Dew PointF,Humidity,Sea Level PressureIn,VisibilityMPH,Wind Direction,Wind SpeedMPH,Gust SpeedMPH,PrecipitationIn,Events,Conditions,WindDirDegrees,DateUTC
12:53 AM,61.0,59.0,93,29.94,4.0,East,4.6,-,0.04,Rain,Light Rain,90,2013-01-26 08:53:00
1:10 AM,60.8,57.2,88,29.93,4.0,ENE,3.5,-,0.00,Rain,Light Rain,70,2013-01-26 09:10:00
1:50 AM,60.8,57.2,88,29.93,8.0,Calm,Calm,-,0.00,,Overcast,0,2013-01-26 09:50:00
1:53 AM,60.1,57.9,93,29.92,8.0,Calm,Calm,-,0.00,,Overcast,0,2013-01-26 09:53:00
2:53 AM,60.1,57.9,93,29.91,6.0,Calm,Calm,-,N/A,,Overcast,0,2013-01-26 10:53:00
3:48 AM,60.8,57.2,88,29.90,6.0,Calm,Calm,-,0.00,,Mostly Cloudy,0,2013-01-26 11:48:00
3:53 AM,60.1,57.9,93,29.90,5.0,SE,3.5,-,0.00,,Overcast,130,2013-01-26 11:53:00
4:27 AM,60.8,57.2,88,29.89,7.0,Calm,Calm,-,N/A,,Overcast,0,2013-01-26 12:27:00
4:53 AM,60.1,57.9,93,29.88,7.0,Calm,Calm,-,N/A,,Overcast,0,2013-01-26 12:53:00
5:53 AM,60.1,57.0,90,29.89,10.0,Calm,Calm,-,0.00,,Overcast,0,2013-01-26 13:53:00
6:16 AM,60.8,57.2,88,29.90,9.0,Calm,Calm,-,N/A,,Overcast,0,2013-01-26 14:16:00
6:28 AM,60.8,57.2,88,29.91,6.0,Calm,Calm,-,N/A,,Overcast,0,2013-01-26 14:28:00
6:45 AM,60.8,57.2,88,29.91,1.5,Calm,Calm,-,N/A,,Overcast,0,2013-01-26 14:45:00
6:51 AM,59.0,57.2,94,29.91,0.5,Calm,Calm,-,N/A,Fog,Fog,0,2013-01-26 14:51:00
6:53 AM,59.0,57.9,96,29.91,0.5,Calm,Calm,-,N/A,Fog,Fog,0,2013-01-26 14:53:00
7:00 AM,59.0,57.2,94,29.91,0.2,Calm,Calm,-,N/A,Fog,Fog,0,2013-01-26 15:00:00
7:09 AM,59.0,57.2,94,29.91,0.5,Calm,Calm,-,N/A,Fog,Fog,0,2013-01-26 15:09:00
7:42 AM,59.0,57.2,94,29.91,1.8,Calm,Calm,-,0.01,Rain,Light Rain,0,2013-01-26 15:42:00
7:45 AM,59.0,57.2,94,29.91,2.5,Calm,Calm,-,0.01,Rain,Light Rain,0,2013-01-26 15:45:00
7:51 AM,59.0,57.2,94,29.92,4.0,ESE,3.5,-,0.01,,Overcast,120,2013-01-26 15:51:00
7:52 AM,59.0,57.0,93,29.91,5.0,Calm,Calm,-,0.01,,Overcast,0,2013-01-26 15:52:00
8:00 AM,59.0,57.2,94,29.92,4.0,SE,3.5,-,N/A,,Overcast,140,2013-01-26 16:00:00
8:27 AM,59.0,57.2,94,29.92,1.8,SE,3.5,-,0.00,Rain,Light Rain,140,2013-01-26 16:27:00
8:53 AM,60.1,57.9,93,29.93,1.5,Calm,Calm,-,0.01,,Overcast,0,2013-01-26 16:53:00
9:13 AM,60.8,57.2,88,29.94,2.5,Calm,Calm,-,0.00,Rain,Light Rain,0,2013-01-26 17:13:00
9:40 AM,60.8,57.2,88,29.94,1.5,SE,3.5,-,0.02,Rain,Light Rain,140,2013-01-26 17:40:00
9:53 AM,60.1,57.9,93,29.94,1.2,SSE,3.5,-,0.03,Rain,Light Rain,150,2013-01-26 17:53:00
10:05 AM,60.8,57.2,88,29.94,2.0,SE,3.5,-,0.00,,Overcast,130,2013-01-26 18:05:00
10:12 AM,60.8,57.2,88,29.94,1.8,SE,3.5,-,0.00,,Overcast,140,2013-01-26 18:12:00
10:19 AM,60.8,57.2,88,29.94,2.0,SE,3.5,-,0.00,,Overcast,140,2013-01-26 18:19:00
10:26 AM,60.8,57.2,88,29.95,1.2,SSE,3.5,-,0.00,,Overcast,150,2013-01-26 18:26:00
10:41 AM,60.8,59.0,94,29.95,0.8,SW,4.6,-,0.01,Rain,Light Rain,230,2013-01-26 18:41:00
10:49 AM,60.8,57.2,88,29.95,1.0,SW,5.8,-,0.01,Rain,Light Rain,220,2013-01-26 18:49:00
10:53 AM,60.1,57.9,93,29.94,0.8,SW,6.9,-,0.01,,Overcast,220,2013-01-26 18:53:00
11:06 AM,59.0,57.2,94,29.94,0.2,SSW,5.8,-,N/A,Fog,Fog,200,2013-01-26 19:06:00
11:34 AM,60.8,57.2,88,29.93,1.2,South,4.6,-,N/A,,Overcast,190,2013-01-26 19:34:00
11:40 AM,60.8,59.0,94,29.93,3.0,SSE,3.5,-,N/A,,Overcast,160,2013-01-26 19:40:00
11:53 AM,60.1,57.9,93,29.92,7.0,SSE,3.5,-,N/A,,Overcast,160,2013-01-26 19:53:00
12:53 PM,61.0,59.0,93,29.90,3.0,SW,5.8,-,N/A,,Overcast,220,2013-01-26 20:53:00
1:31 PM,60.8,57.2,88,29.90,8.0,SSW,4.6,-,N/A,,Overcast,200,2013-01-26 21:31:00
1:53 PM,60.1,57.9,93,29.91,2.5,WSW,5.8,-,N/A,,Overcast,240,2013-01-26 21:53:00
2:01 PM,60.8,57.2,88,29.92,1.5,SW,9.2,-,N/A,,Overcast,220,2013-01-26 22:01:00
2:14 PM,60.8,57.2,88,29.92,3.0,SW,4.6,-,N/A,,Overcast,230,2013-01-26 22:14:00
2:38 PM,60.8,57.2,88,29.92,10.0,SW,6.9,-,N/A,,Overcast,230,2013-01-26 22:38:00
2:51 PM,60.8,57.2,88,29.93,1.5,SW,6.9,-,N/A,,Overcast,230,2013-01-26 22:51:00
2:53 PM,60.1,57.0,90,29.92,0.8,WSW,6.9,-,N/A,,Overcast,240,2013-01-26 22:53:00
3:03 PM,59.0,57.2,94,29.93,0.2,SSW,6.9,-,N/A,Fog,Fog,200,2013-01-26 23:03:00
3:53 PM,57.9,55.9,93,29.93,1.2,SW,9.2,-,N/A,,Overcast,230,2013-01-26 23:53:00
4:19 PM,57.2,55.4,94,29.93,3.0,WSW,4.6,-,N/A,,Overcast,250,2013-01-27 00:19:00
4:53 PM,57.9,55.9,93,29.93,4.0,SW,4.6,-,N/A,,Overcast,220,2013-01-27 00:53:00
5:02 PM,57.2,55.4,94,29.93,2.0,SSW,3.5,-,N/A,,Overcast,210,2013-01-27 01:02:00
5:53 PM,57.9,55.9,93,29.95,2.0,Calm,Calm,-,N/A,,Overcast,0,2013-01-27 01:53:00
6:00 PM,57.2,55.4,94,29.96,5.0,Calm,Calm,-,N/A,,Overcast,0,2013-01-27 02:00:00
6:37 PM,57.2,55.4,94,29.96,1.8,South,3.5,-,N/A,,Overcast,170,2013-01-27 02:37:00
6:51 PM,57.2,55.4,94,29.96,0.5,SSE,5.8,-,N/A,Fog,Fog,160,2013-01-27 02:51:00
6:53 PM,57.9,55.9,93,29.96,0.2,SSE,5.8,-,N/A,Fog,Fog,160,2013-01-27 02:53:00
7:08 PM,57.2,57.2,100,29.97,0.5,SSE,4.6,-,N/A,Fog,Fog,150,2013-01-27 03:08:00
7:19 PM,57.2,57.2,100,29.97,2.0,SE,5.8,-,N/A,,Overcast,130,2013-01-27 03:19:00
7:27 PM,57.2,57.2,100,29.97,4.0,SSE,3.5,-,N/A,,Overcast,150,2013-01-27 03:27:00
7:45 PM,57.2,55.4,94,29.97,4.0,Calm,Calm,-,N/A,,Overcast,0,2013-01-27 03:45:00
7:53 PM,57.9,55.9,93,29.97,4.0,SSE,3.5,-,N/A,,Overcast,160,2013-01-27 03:53:00
8:03 PM,57.2,55.4,94,29.97,5.0,SSE,4.6,-,N/A,,Overcast,150,2013-01-27 04:03:00
8:21 PM,57.2,55.4,94,29.98,5.0,SSE,4.6,-,N/A,,Overcast,160,2013-01-27 04:21:00
8:53 PM,57.9,55.9,93,29.98,4.0,SSW,4.6,-,N/A,,Overcast,210,2013-01-27 04:53:00
9:15 PM,57.2,55.4,94,29.99,2.5,SSW,5.8,-,N/A,,Overcast,210,2013-01-27 05:15:00
9:24 PM,57.2,55.4,94,29.99,1.5,SSW,5.8,-,N/A,,Overcast,210,2013-01-27 05:24:00
9:39 PM,57.2,55.4,94,30.00,0.5,SSW,8.1,-,N/A,Fog,Fog,210,2013-01-27 05:39:00
9:53 PM,57.9,55.9,93,29.99,0.5,SSW,6.9,-,N/A,Fog,Fog,200,2013-01-27 05:53:00
10:01 PM,57.2,55.4,94,30.00,0.2,South,4.6,-,N/A,Fog,Fog,190,2013-01-27 06:01:00
10:09 PM,57.2,55.4,94,30.00,0.8,South,5.8,-,N/A,,Mist,190,2013-01-27 06:09:00
10:17 PM,57.2,55.4,94,30.00,1.5,South,5.8,-,N/A,,Overcast,190,2013-01-27 06:17:00
10:53 PM,57.9,55.9,93,30.00,1.8,South,5.8,-,0.01,,Overcast,180,2013-01-27 06:53:00
11:09 PM,57.2,55.4,94,30.00,3.0,SW,6.9,-,0.01,Rain,Light Rain,220,2013-01-27 07:09:00
11:16 PM,57.2,55.4,94,30.01,1.8,SW,6.9,-,0.01,,Overcast,220,2013-01-27 07:16:00
11:37 PM,57.2,55.4,94,30.01,0.5,WSW,8.1,-,0.01,Fog,Fog,240,2013-01-27 07:37:00
11:53 PM,57.0,55.0,93,30.01,1.0,SSW,5.8,-,0.01,,Mist,210,2013-01-27 07:53:00